Location: Passau
(48.5830°N, 13.4830°E)
Time: 22:08:04
(UTC+02:00)

Vanguard 3 - Pass Details

Date: 22 May 2024
Orbit: 509 x 3231 km, 33.3° (Epoch: 16 June)

Event Time Altitude Azimuth Distance (km) Brightness Sun altitude
Rises 00:45:09 0° 268° (W) 5,719 11.5 -20.9°
Reaches altitude 10° 00:48:58 10° 260° (W) 5,055 11.1 -20.9°
Maximum altitude 01:02:15 34° 203° (SSW) 4,198 10.2 -21.0°
Enters shadow 01:12:24 22° 161° (SSE) 5,187 10.6 -20.9°
Drops below altitude 10° 01:18:29 10° 148° (SSE) 6,133 - -20.9°
Exits shadow 01:21:28 - 143° (SE) 6,639 11.4 -20.9°
Sets 01:23:48 0° 140° (SE) 7,042 11.5 -20.8°
